This demonstration page uses our WeatherBlox Daily Observations layout. Learn more.

Left ArrowRight Arrow

39.29038, -76.61219

Hourly Observations for January 9, 2017

Temp ( °F °C ) Dew Point ( °F °C ) Humidity (%) Winds ( mph kmh ) Pressure ( in mb ) Visibility ( mi km ) Precip ( " mm )
12:54 am 00:54 undefined 18 -7.8 -1 -18.3 43 43 undefined N/A 30.65 1038 N/A 0.00 0.00
1:54 am 01:54 undefined 17 -8.3 -1 -18.3 45 45 undefined N/A 30.77 1042 N/A 0.00 0.00
2:54 am 02:54 undefined 17 -8.3 -1 -18.3 45 45 undefined N/A 30.75 1041 N/A 0.00 0.00
3:54 am 03:54 undefined 17 -8.3 -1 -18.3 45 45 undefined N/A 30.64 1038 N/A 0.00 0.00
4:54 am 04:54 undefined 17 -8.3 -1 -18.3 45 45 undefined N/A 30.78 1042 N/A 0.00 0.00
5:54 am 05:54 undefined 17 -8.3 -1 -18.3 45 45 undefined N/A 30.76 1042 N/A 0.00 0.00
6:54 am 06:54 undefined 18 -7.8 -1 -18.3 43 43 undefined N/A 30.74 1041 N/A 0.00 0.00
7:54 am 07:54 undefined 19 -7.2 0 -17.8 43 43 undefined N/A 30.69 1039 N/A 0.00 0.00
8:54 am 08:54 undefined 20 -6.7 1 -17.2 43 43 undefined N/A 30.85 1045 N/A 0.00 0.00
9:07 am 09:07 undefined 20 -6.7 1 -17.2 43 43 undefined N/A 30.86 1045 N/A 0.00 0.00
9:54 am 09:54 undefined 21 -6.1 2 -16.7 43 43 undefined N/A 30.74 1041 N/A 0.00 0.00
10:54 am 10:54 undefined 23 -5 2 -16.7 40 40 undefined N/A 30.77 1042 N/A 0.00 0.00
11:54 am 11:54 undefined 26 -3.3 2 -16.7 35 35 undefined N/A 30.73 1041 N/A 0.00 0.00
12:54 pm 12:54 undefined 27 -2.8 2 -16.7 34 34 undefined N/A 30.71 1040 N/A 0.00 0.00
1:54 pm 13:54 undefined 26 -3.3 2 -16.7 35 35 undefined N/A 30.66 1038 N/A 0.00 0.00
2:54 pm 14:54 undefined 28 -2.2 3 -16.1 34 34 undefined N/A 30.66 1038 N/A 0.00 0.00
3:54 pm 15:54 undefined 27 -2.8 4 -15.6 37 37 undefined N/A 30.64 1038 N/A 0.00 0.00
4:54 pm 16:54 undefined 26 -3.3 4 -15.6 38 38 undefined N/A 30.70 1040 N/A 0.00 0.00
5:26 pm 17:26 undefined 26 -3.3 4 -15.6 38 38 undefined N/A 30.74 1041 N/A 0.00 0.00
5:54 pm 17:54 undefined 26 -3.3 4 -15.6 38 38 undefined N/A 30.70 1040 N/A 0.00 0.00
6:54 pm 18:54 undefined 25 -3.9 5 -15 42 42 undefined N/A 30.61 1037 N/A 0.00 0.00
7:54 pm 19:54 undefined 24 -4.4 4 -15.6 42 42 undefined N/A 30.75 1041 N/A 0.00 0.00
8:03 pm 20:03 undefined 24 -4.4 4 -15.6 42 42 undefined N/A 30.74 1041 N/A 0.00 0.00
8:54 pm 20:54 undefined 23 -5 4 -15.6 44 44 undefined N/A 30.61 1037 N/A 0.00 0.00
9:54 pm 21:54 undefined 23 -5 4 -15.6 44 44 undefined N/A 30.73 1041 N/A 0.00 0.00
10:54 pm 22:54 undefined 23 -5 4 -15.6 44 44 undefined N/A 30.62 1037 N/A 0.00 0.00
11:54 pm 23:54 undefined 23 -5 5 -15 46 46 undefined N/A 30.59 1036 N/A 0.00 0.00

Powered by AerisWeather